sat.trackr.live / text

‹ back to catalog

O3B FM4

NORAD 39189 · 2013-031B

PAYLOAD ACTIVE UNKNOWN

§ Identity

Operator
Country
O3B
Launch date
2013-06-25
Launch site
FRGUI
Launch vehicle
Mass (kg)
RCS (m²)
80.08

Purposes: comms

External: N2YO · Heavens-Above · Gunter

§ Orbital elements

Epoch: 2026-05-24T18:31:57.819072Z

Period
287.93 min
Inclination
0.0452°
Eccentricity
0.0005135
Mean motion
5.00115261 rev/d
Perigee alt
8,058.5 km
Apogee alt
8,073.3 km
Semi-major
14,444.0 km
B*
0.0000e+0
RAAN
346.0512°
Arg perigee
70.2536°
Mean anomaly
303.7435°
Rev number
23,587

§ Raw data

O3B FM41 39189U 13031B   26144.77219698 -.00000024  00000+0  00000+0 0  99992 39189   0.0452 346.0512 0005135  70.2536 303.7435  5.00115261235872

JSON: /api/v1/satellites/39189 · /tle

For live sub-satellite position, see the globe view (requires WebGL).

§ Visibility from observer

Set your observer location to see the next 7 days of passes ≥ 10°. The values pass through the URL so the page stays shareable.

No JS? Fill the form by hand. The geolocation button needs JavaScript.